Wind_Speed
19 19 20 20 21 20 19 18 19 20 20 20 20 20 19 19 19 18 18 17 17 17 16 16 16 17 16 16 16 16 15 15 15 15 15 15 15 15 15 15 15 14 14 14 14 14 13 13 13
20 20 21 21 21 20 19 19 20 21 21 21 21 21 21 21 20 20 20 19 19 19 19 18 18 19 18 18 18 17 17 17 17 17 17 17 17 17 17 17 16 16 16 15 15 15 15 15 15
22 22 22 22 22 20 19 20 21 22 22 22 22 22 22 22 21 21 21 21 21 21 21 21 20 20 20 20 20 20 19 19 19 19 19 19 19 19 19 19 19 18 18 18 17 17 18 17 17
22 23 23 23 22 20 21 21 22 23 23 23 23 23 23 23 22 22 22 22 22 22 22 22 22 22 21 21 21 21 21 21 21 21 21 21 21 21 21 21 21 21 20 20 19 19 20 19 19
23 23 23 23 22 21 22 23 24 24 24 25 25 25 25 24 24 23 23 23 23 23 23 24 23 24 24 24 23 23 23 23 23 23 23 23 23 23 23 23 22 22 23 22 22 21 22 22 22
24 24 24 22 22 22 22 24 25 25 26 26 27 26 26 26 26 25 25 25 25 25 25 25 26 26 26 26 26 25 25 25 25 25 25 25 25 25 25 25 25 24 24 24 24 24 24 24 24
24 24 24 23 23 23 23 25 26 27 27 28 28 28 27 27 28 28 27 27 27 27 27 28 28 28 28 28 28 28 28 28 27 27 27 27 27 27 27 27 27 27 26 26 26 25 25 25 25
25 25 24 24 24 24 25 26 27 28 29 29 29 29 29 29 30 30 30 30 29 29 29 30 30 30 30 30 30 30 29 30 30 29 30 29 29 29 29 29 28 29 29 29 29 28 27 28 27
25 26 25 25 26 26 26 27 28 29 29 30 31 31 31 31 32 33 32 32 32 32 32 32 32 32 32 32 32 32 31 31 31 32 32 32 32 32 32 32 31 31 31 32 32 31 31 30 30
26 27 26 27 27 27 28 29 29 30 30 31 32 33 32 33 33 34 34 34 34 34 34 34 34 34 34 34 34 34 34 34 34 34 33 34 34 34 34 34 34 34 34 34 34 33 33 33 32
27 27 27 27 28 29 29 30 31 32 32 32 33 34 34 34 34 35 36 36 36 36 36 36 36 36 36 36 36 36 36 36 36 36 36 36 36 36 36 36 37 36 36 36 35 35 35 35 35
28 28 28 28 29 30 30 31 32 33 33 34 35 35 35 36 36 36 37 37 37 37 38 38 38 38 37 37 37 37 38 38 38 38 38 38 38 38 37 38 38 38 38 38 38 37 37 37 37
28 28 29 30 30 31 32 33 34 34 35 36 36 36 37 37 37 37 37 38 38 38 39 39 39 38 39 39 38 38 38 39 39 39 39 40 40 40 39 40 40 40 39 39 39 39 39 39 39
28 29 30 31 31 32 33 34 35 35 36 37 37 38 38 38 38 38 38 38 39 39 40 40 40 40 40 40 40 40 39 39 40 40 40 40 40 41 41 42 42 42 42 42 41 41 40 40 40
29 30 31 31 32 33 34 34 35 35 37 37 38 38 38 38 38 38 38 38 39 39 40 40 41 41 41 41 41 41 41 40 40 40 40 40 41 41 41 41 42 43 42 42 42 42 42 42 42
30 31 31 31 32 33 34 34 34 36 37 37 38 38 39 39 38 38 38 38 39 39 40 40 41 41 41 41 41 41 41 41 41 41 41 41 42 42 43 43 43 44 44 43 43 43 43 43 43
30 31 30 31 32 33 34 34 34 36 37 37 37 38 38 38 38 38 39 39 39 40 40 40 40 41 41 41 41 41 41 41 42 41 41 41 43 43 43 43 44 45 45 45 45 45 45 46 46
29 30 30 30 31 32 33 33 33 35 37 37 37 37 37 38 38 39 39 39 39 39 39 39 39 40 40 41 41 42 42 42 43 43 43 43 43 44 45 45 45 46 46 46 47 47 47 47 47
28 29 29 30 31 32 32 33 33 34 35 36 36 37 37 38 38 39 39 39 38 38 38 38 39 39 40 40 41 42 42 43 43 44 44 45 45 45 46 47 46 46 47 47 48 48 48 47 47
27 28 29 29 31 33 33 33 32 33 33 34 34 35 36 36 37 38 38 38 38 38 38 38 39 40 40 41 41 42 42 43 43 43 44 44 45 44 45 45 47 47 46 47 47 48 47 47 47
27 28 29 30 31 32 33 33 32 32 32 32 33 33 34 35 35 35 36 36 37 37 37 38 39 40 40 41 41 42 43 43 43 43 43 44 44 44 44 44 45 46 46 46 46 46 46 45 45
27 28 29 30 31 32 32 33 30 30 31 31 31 32 32 32 33 34 34 35 36 37 37 37 38 40 41 41 42 42 42 42 43 43 43 43 43 43 44 44 44 45 46 45 44 44 45 45 45
27 28 29 30 30 31 30 31 28 28 29 29 30 30 30 31 32 32 33 35 36 37 38 39 39 40 41 41 41 41 41 41 42 42 43 43 43 43 42 42 43 44 44 43 43 44 44 46 47
26 27 28 29 28 29 27 28 27 26 26 27 28 29 29 30 32 32 33 33 35 36 37 38 38 39 39 40 40 41 40 40 41 42 43 43 43 43 43 42 42 42 42 42 43 44 44 45 46
26 27 27 28 28 28 26 26 25 25 25 26 27 28 29 30 31 32 32 33 34 35 36 37 37 38 39 39 40 40 41 40 40 40 41 42 42 43 44 43 42 42 42 42 42 43 43 43 44
27 27 27 29 29 28 27 26 25 25 26 26 27 28 29 30 31 32 32 33 34 35 35 36 37 37 38 39 39 39 40 40 40 40 40 41 41 42 43 43 43 42 42 41 41 41 42 42 43
27 27 27 28 29 28 27 26 26 26 26 27 27 28 29 30 31 32 33 34 34 34 35 36 36 36 37 37 38 38 38 39 38 39 40 40 41 41 42 42 42 42 41 40 39 39 40 40 41
26 26 27 28 29 29 28 26 26 26 26 27 28 29 30 31 31 31 33 34 35 35 36 36 36 37 37 37 37 37 37 37 37 38 38 39 39 40 40 41 41 41 40 39 39 39 39 40 41
26 26 28 29 29 30 30 28 26 26 27 28 29 29 30 31 32 32 32 33 34 35 36 36 36 37 37 36 37 37 36 36 36 37 37 38 39 39 39 39 39 39 39 39 40 40 40 40 40
26 27 27 28 29 30 31 30 28 28 29 30 30 30 30 31 31 32 32 33 34 35 35 35 35 36 36 36 36 36 36 37 37 37 37 37 38 37 38 38 38 38 39 39 39 40 41 40 40
Wind_Direction
250 251 252 253 255 255 254 254 253 254 254 255 257 258 259 259 258 260 260 260 259 260 262 263 263 264 265 265 265 266 266 264 262 259 257 255 254 254 255 256 258 261 262 263 263 263 263 262 260
251 252 252 253 255 256 256 256 253 253 255 256 257 258 259 260 260 260 261 261 261 261 261 263 263 263 264 265 265 265 265 265 263 261 260 259 257 257 256 256 257 260 262 262 261 262 263 263 263
251 253 253 253 254 257 257 256 253 254 256 257 258 259 259 260 261 261 261 262 263 263 262 262 262 262 263 265 266 265 265 265 264 263 261 262 260 259 258 257 258 259 259 260 261 260 261 261 262
251 253 253 254 255 257 258 258 256 257 257 257 258 259 259 260 261 261 262 262 263 264 263 263 263 262 263 263 264 265 265 265 265 264 262 262 261 260 260 258 259 259 259 260 261 263 261 260 261
252 253 254 255 256 257 258 258 258 258 258 259 259 258 259 260 261 261 261 262 263 263 264 264 264 264 264 264 265 265 265 265 265 264 263 262 262 261 260 258 259 259 259 259 259 261 263 263 262
253 253 255 257 258 258 258 258 259 259 259 259 259 259 259 260 261 261 261 262 263 263 263 265 264 265 265 265 265 265 265 265 265 265 265 264 263 263 262 261 261 262 261 261 261 260 262 263 263
254 255 256 257 257 257 258 258 260 261 261 261 261 261 260 260 261 261 262 263 264 264 263 264 264 264 264 264 264 264 264 264 265 265 265 264 263 263 262 262 262 262 262 262 262 263 263 263 264
256 257 257 257 257 257 258 260 261 261 261 261 262 262 262 261 261 262 263 264 265 264 264 264 264 264 264 264 264 264 263 263 263 264 264 264 263 262 262 262 262 262 262 262 262 263 263 263 263
257 259 260 259 259 259 259 260 261 262 262 262 262 263 263 263 262 262 262 263 264 264 264 264 264 263 263 263 263 264 263 263 264 264 264 264 263 262 262 262 262 261 262 262 262 263 264 264 264
259 260 261 261 261 261 261 262 262 261 261 262 263 264 265 265 265 265 264 263 263 263 264 264 263 263 263 263 263 264 264 264 264 264 264 264 263 262 262 262 262 261 261 261 262 262 263 264 265
260 261 262 262 263 263 263 263 263 263 262 262 264 265 266 266 267 266 266 265 265 264 264 264 263 263 263 263 263 263 264 264 264 265 264 263 263 263 262 262 261 261 261 261 261 262 263 264 265
262 262 263 264 264 265 265 265 264 264 263 263 264 265 266 266 267 268 267 266 266 265 265 264 264 264 263 262 262 263 263 263 264 263 262 262 263 262 261 261 261 261 261 261 261 262 263 263 264
265 265 265 266 266 266 266 266 265 264 264 264 264 265 267 267 268 269 268 267 266 266 265 264 264 264 263 263 263 263 264 263 263 263 262 262 261 261 261 260 260 260 260 260 261 261 262 263 264
268 267 267 268 268 268 267 267 267 266 266 265 265 266 267 268 268 268 267 267 267 267 266 265 265 264 263 263 263 263 264 263 263 263 263 262 261 261 261 260 260 260 260 260 261 262 263 263 263
269 269 269 269 269 268 269 268 269 268 267 267 267 267 268 268 268 267 267 267 267 266 266 265 265 265 264 263 263 263 262 263 264 263 263 262 263 262 261 261 261 261 260 260 260 261 262 262 263
272 271 271 270 270 270 270 270 270 269 269 270 270 269 269 268 268 268 268 268 267 267 266 265 265 265 264 263 263 263 263 263 263 263 263 263 263 263 263 262 262 262 261 261 261 261 262 263 262
273 273 273 272 272 272 271 271 271 270 270 271 271 270 270 269 268 269 269 268 268 267 266 265 264 264 265 264 263 263 263 263 263 263 263 264 263 263 263 263 263 263 263 263 263 263 263 263 263
274 274 274 274 273 273 273 273 272 272 272 271 270 270 269 268 268 267 268 268 268 268 266 265 264 265 265 265 265 264 263 263 264 263 263 265 264 264 263 264 265 265 264 264 264 263 263 263 264
275 275 275 275 275 274 275 275 275 274 273 272 270 270 268 268 267 266 266 266 267 268 267 266 264 265 265 265 265 265 265 264 263 263 264 264 265 265 265 266 266 266 266 266 265 264 263 263 263
275 276 277 277 277 276 276 276 277 276 274 272 271 270 268 267 268 267 266 266 267 267 267 266 265 265 266 266 266 265 266 266 265 265 265 265 266 266 266 266 266 266 266 266 265 264 262 261 261
277 279 279 279 280 279 278 277 278 277 276 273 271 270 269 269 269 269 268 267 267 268 268 267 266 266 266 267 267 266 267 267 267 266 266 266 266 267 267 266 265 265 265 264 263 263 261 260 260
281 282 283 282 282 282 282 282 279 277 277 275 273 271 270 271 270 271 271 270 268 268 268 269 268 267 267 268 268 268 268 268 268 267 267 267 267 268 268 267 265 265 264 263 263 262 260 260 260
285 285 285 285 285 285 284 283 280 278 277 276 274 273 273 272 271 271 272 270 269 269 268 269 269 268 267 268 269 269 269 269 268 268 268 268 268 268 268 268 268 266 265 264 263 261 260 260 260
285 286 287 287 287 287 286 284 282 279 279 278 277 276 275 275 274 273 273 272 271 270 269 269 269 268 269 269 269 270 270 269 269 269 269 269 270 270 268 269 269 268 266 265 264 263 262 262 261
285 287 288 288 288 288 288 287 285 282 280 279 280 278 277 278 277 276 275 274 273 272 271 270 269 269 269 269 270 271 271 271 271 271 270 270 270 270 270 269 269 268 267 266 265 264 263 262 262
285 285 286 289 291 290 289 289 287 285 282 281 281 281 279 278 279 278 277 277 275 274 273 272 271 270 271 271 271 272 273 273 273 272 271 271 270 270 270 270 270 269 267 265 265 265 263 263 263
283 283 285 287 288 290 289 289 287 286 285 283 282 282 282 281 279 279 279 278 277 275 274 273 272 272 273 272 272 273 274 274 274 273 273 273 272 271 272 271 270 269 267 265 264 265 265 264 263
284 284 285 286 287 288 290 291 289 287 285 284 284 284 284 283 282 281 281 280 278 278 278 275 273 274 275 274 274 275 275 275 275 275 275 276 275 273 272 272 271 269 267 265 264 264 265 265 264
285 285 286 286 286 287 289 292 292 290 287 286 287 286 286 284 283 282 283 283 281 281 280 276 276 276 276 275 276 276 276 276 277 278 277 277 276 275 274 273 272 269 267 266 266 266 266 265 264
283 284 285 286 287 287 287 291 293 292 289 289 289 288 287 287 286 284 284 283 282 282 280 278 277 276 276 276 276 277 277 277 277 278 278 278 277 276 276 275 274 271 268 267 267 266 265 264 263
Height
5807 5809 5810 5811 5813 5814 5815 5817 5817 5818 5819 5820 5821 5822 5823 5824 5826 5829 5827 5827 5827 5828 5828 5828 5829 5829 5829 5830 5830 5830 5831 5831 5832 5832 5833 5834 5835 5835 5836 5837 5838 5838 5839 5839 5840 5841 5842 5843 5843
5804 5805 5807 5808 5809 5810 5813 5813 5813 5814 5815 5816 5817 5818 5819 5820 5821 5822 5822 5823 5823 5824 5825 5825 5825 5826 5826 5826 5827 5827 5828 5828 5829 5829 5830 5831 5831 5832 5833 5834 5835 5835 5836 5837 5837 5838 5839 5840 5840
5800 5801 5803 5804 5805 5807 5809 5809 5810 5810 5811 5813 5814 5814 5815 5816 5817 5818 5818 5819 5820 5820 5821 5821 5822 5822 5822 5823 5823 5824 5824 5824 5825 5826 5826 5827 5828 5829 5829 5830 5831 5832 5832 5833 5834 5835 5836 5836 5837
5796 5797 5799 5800 5801 5803 5804 5805 5805 5806 5807 5808 5809 5810 5811 5812 5813 5813 5814 5815 5815 5816 5816 5817 5817 5818 5818 5819 5819 5819 5820 5820 5821 5821 5822 5823 5824 5825 5825 5826 5827 5828 5829 5829 5830 5831 5832 5832 5833
5791 5793 5794 5795 5797 5799 5800 5800 5801 5802 5802 5803 5804 5805 5806 5807 5808 5808 5809 5810 5810 5811 5812 5812 5812 5813 5813 5814 5814 5815 5815 5816 5816 5817 5818 5819 5819 5820 5821 5822 5822 5823 5824 5825 5826 5827 5827 5828 5829
5787 5788 5790 5792 5793 5795 5795 5795 5796 5797 5798 5798 5800 5801 5801 5802 5803 5803 5804 5804 5805 5806 5806 5807 5807 5808 5808 5808 5809 5809 5810 5811 5811 5812 5813 5813 5814 5815 5816 5817 5817 5818 5819 5820 5821 5822 5823 5823 5824
5782 5783 5785 5787 5788 5789 5790 5790 5791 5791 5792 5793 5794 5795 5796 5797 5797 5797 5798 5799 5799 5800 5800 5801 5801 5802 5802 5802 5803 5803 5804 5805 5805 5806 5807 5808 5809 5809 5810 5811 5812 5813 5814 5815 5816 5816 5817 5818 5818
5777 5779 5780 5782 5783 5784 5785 5785 5785 5786 5786 5787 5788 5789 5790 5791 5791 5791 5792 5792 5793 5793 5794 5794 5794 5795 5795 5796 5796 5797 5797 5798 5799 5799 5800 5801 5802 5803 5804 5805 5806 5807 5808 5809 5810 5810 5811 5812 5813
5771 5774 5775 5776 5777 5778 5779 5779 5780 5780 5780 5781 5782 5782 5783 5784 5784 5785 5785 5786 5786 5786 5787 5787 5787 5788 5788 5789 5789 5789 5790 5791 5791 5792 5793 5794 5795 5796 5797 5798 5799 5800 5801 5802 5803 5804 5805 5806 5807
5766 5767 5769 5770 5771 5772 5772 5773 5773 5773 5774 5774 5775 5775 5776 5777 5777 5778 5778 5778 5779 5779 5779 5779 5780 5780 5780 5781 5781 5781 5782 5783 5784 5784 5785 5786 5787 5788 5789 5790 5791 5793 5794 5795 5796 5797 5798 5799 5800
5760 5761 5763 5763 5764 5764 5765 5766 5766 5766 5767 5768 5768 5768 5769 5769 5770 5770 5770 5770 5770 5770 5771 5771 5771 5771 5772 5772 5772 5773 5773 5774 5775 5776 5777 5777 5778 5779 5781 5782 5783 5784 5786 5787 5788 5789 5790 5791 5792
5754 5755 5756 5756 5757 5757 5758 5758 5758 5759 5760 5760 5760 5760 5760 5761 5761 5761 5761 5761 5761 5761 5762 5762 5762 5762 5763 5763 5763 5763 5764 5765 5766 5766 5767 5768 5769 5771 5772 5773 5774 5775 5777 5778 5779 5780 5782 5783 5784
5747 5748 5748 5749 5749 5750 5750 5750 5750 5751 5751 5751 5751 5752 5752 5752 5752 5752 5752 5752 5752 5752 5752 5753 5753 5753 5753 5753 5754 5754 5755 5755 5756 5756 5758 5759 5760 5761 5762 5763 5765 5766 5767 5769 5770 5771 5773 5774 5775
5740 5741 5741 5741 5741 5741 5742 5742 5742 5742 5742 5742 5742 5742 5742 5743 5743 5743 5743 5743 5742 5742 5742 5742 5742 5743 5743 5744 5744 5745 5745 5746 5746 5746 5747 5748 5749 5751 5752 5753 5754 5756 5757 5759 5760 5762 5763 5764 5765
5733 5733 5734 5733 5733 5733 5733 5734 5734 5734 5733 5733 5733 5733 5733 5733 5733 5733 5733 5733 5732 5732 5732 5732 5733 5733 5733 5734 5734 5735 5735 5736 5736 5737 5737 5738 5739 5740 5741 5742 5744 5745 5747 5748 5750 5751 5752 5754 5755
5725 5726 5726 5726 5725 5724 5726 5726 5726 5724 5724 5723 5723 5723 5723 5723 5723 5723 5723 5722 5722 5722 5722 5722 5722 5723 5723 5723 5724 5724 5725 5725 5726 5726 5727 5727 5728 5729 5730 5731 5733 5734 5736 5737 5739 5740 5741 5743 5744
5718 5718 5718 5718 5717 5716 5716 5717 5717 5715 5714 5714 5713 5713 5713 5713 5713 5713 5713 5712 5712 5712 5711 5712 5712 5713 5713 5713 5714 5714 5715 5715 5715 5716 5716 5717 5717 5718 5719 5720 5721 5723 5724 5725 5727 5728 5729 5731 5732
5710 5710 5710 5710 5709 5708 5708 5708 5708 5706 5704 5703 5703 5703 5703 5703 5703 5703 5703 5702 5702 5702 5701 5702 5702 5703 5703 5703 5704 5704 5704 5704 5704 5705 5706 5706 5706 5707 5708 5708 5709 5710 5712 5713 5714 5716 5717 5718 5719
5702 5702 5702 5701 5700 5699 5699 5699 5698 5696 5695 5693 5693 5692 5692 5693 5693 5693 5692 5692 5692 5692 5692 5692 5692 5693 5693 5694 5694 5694 5694 5694 5694 5694 5694 5694 5695 5695 5696 5697 5697 5698 5699 5700 5701 5702 5704 5705 5706
5694 5694 5694 5694 5692 5691 5690 5690 5689 5687 5685 5684 5683 5683 5682 5682 5682 5682 5682 5682 5682 5682 5682 5682 5682 5683 5683 5683 5683 5683 5683 5683 5683 5683 5683 5683 5683 5683 5684 5684 5685 5686 5687 5687 5688 5689 5690 5692 5693
5687 5687 5686 5685 5684 5682 5681 5681 5680 5678 5676 5675 5674 5673 5673 5673 5673 5673 5673 5673 5673 5673 5673 5673 5673 5673 5673 5673 5673 5673 5673 5672 5673 5672 5672 5672 5672 5672 5672 5672 5673 5673 5674 5675 5675 5676 5677 5679 5680
5680 5680 5679 5677 5676 5674 5672 5670 5672 5669 5668 5667 5666 5666 5665 5665 5664 5664 5664 5663 5663 5663 5663 5663 5663 5663 5663 5663 5663 5663 5663 5662 5662 5662 5661 5661 5661 5661 5660 5661 5661 5661 5662 5662 5663 5664 5665 5667 5668
5674 5672 5671 5669 5668 5666 5664 5662 5664 5661 5660 5660 5659 5658 5658 5657 5656 5655 5654 5654 5653 5653 5653 5653 5653 5653 5653 5653 5652 5652 5652 5652 5651 5651 5651 5650 5650 5650 5649 5649 5649 5649 5649 5650 5651 5652 5653 5654 5656
5667 5666 5664 5662 5660 5659 5658 5655 5655 5654 5653 5653 5652 5651 5650 5649 5648 5647 5645 5644 5643 5643 5643 5643 5643 5643 5642 5642 5642 5641 5641 5641 5641 5640 5640 5639 5639 5638 5638 5638 5638 5637 5638 5638 5639 5640 5641 5643 5644
5660 5659 5657 5654 5653 5652 5651 5648 5649 5648 5647 5646 5645 5644 5643 5641 5640 5638 5637 5636 5635 5634 5634 5633 5633 5633 5632 5632 5631 5631 5631 5630 5630 5629 5629 5629 5628 5628 5627 5626 5627 5626 5627 5627 5628 5629 5630 5632 5633
5654 5652 5651 5648 5646 5646 5644 5642 5644 5642 5640 5639 5638 5637 5635 5634 5632 5630 5629 5627 5626 5625 5625 5624 5624 5623 5623 5622 5621 5621 5620 5620 5619 5618 5618 5617 5617 5616 5616 5615 5615 5615 5615 5616 5617 5618 5619 5621 5622
5647 5645 5644 5642 5640 5638 5637 5637 5637 5635 5633 5632 5631 5630 5628 5626 5625 5623 5621 5620 5618 5617 5616 5615 5614 5614 5613 5612 5612 5611 5610 5609 5608 5608 5607 5606 5605 5605 5605 5604 5604 5604 5604 5605 5606 5608 5609 5610 5612
5642 5640 5638 5636 5633 5631 5631 5631 5630 5629 5627 5625 5624 5622 5621 5619 5617 5615 5613 5612 5610 5608 5607 5606 5605 5605 5604 5603 5602 5601 5600 5599 5599 5598 5597 5596 5595 5594 5594 5594 5594 5594 5594 5595 5596 5597 5599 5600 5601
5636 5634 5631 5629 5628 5626 5624 5627 5624 5622 5620 5618 5616 5614 5613 5611 5609 5607 5605 5603 5601 5600 5598 5597 5596 5595 5594 5593 5592 5592 5591 5590 5589 5588 5587 5586 5585 5584 5583 5583 5583 5583 5584 5585 5585 5587 5588 5589 5591
5629 5627 5626 5624 5622 5619 5618 5621 5617 5615 5613 5611 5609 5607 5605 5603 5601 5599 5597 5595 5593 5591 5589 5588 5587 5586 5585 5584 5583 5582 5581 5580 5579 5578 5577 5576 5575 5574 5574 5573 5573 5573 5574 5574 5575 5576 5577 5579 5580